Location: Austin
(30.3000°N, 97.7500°W)
Time: 06:29:00
(UTC-05:00)

SEDSat Delta rocket - Pass Details

Date: 16 June 2025
Orbit: 529 x 968 km, 31.4° (Epoch: 08 July)

Event Time Altitude Azimuth Distance (km) Brightness Sun altitude
Exits shadow 04:39:30 29° 173° (S) 1,231 4.2 -20.0°
Maximum altitude 04:40:13 30° 156° (SSE) 1,183 4.3 -19.8°
Drops below altitude 10° 04:44:13 10° 95° (E) 1,968 6.2 -19.2°
Sets 04:46:37 0° 84° (E) 2,811 7.3 -18.8°
